weather.gov     
National Weather Service

Terminal Aerodrome Forecast
NWS Homepage
This page is being discontinued on March 12, 2014.
The same data is available at this site. Please update your bookmarks.
Thank you, and we apologize for the inconvenience.
Please send an email to SR-SRH.Webmaster@noaa.gov with any concerns.


Current Version
Previous Version:    01  02  03  04  05  06  07  08  09  10  11  12  13  14  15  16  17  18  19  20  21  22  23  24  25  26  27  28  29  30  
   31  
[Printable]
858
FTUS43 KAPX 230520
TAFTVC
TAF
KTVC 230520Z 2306/2406 21004KT 5SM BR BKN006 OVC023 WS014/23028KT
     FM231000 16005KT 4SM BR OVC006 WS014/21030KT
     FM231700 16005KT 3SM -RA BR OVC005 WS015/20030KT
     FM240000 12005KT 3SM RA BR OVC006 WS015/18032KT=


858
FTUS43 KAPX 230520
TAFTVC
TAF
KTVC 230520Z 2306/2406 21004KT 5SM BR BKN006 OVC023 WS014/23028KT
     FM231000 16005KT 4SM BR OVC006 WS014/21030KT
     FM231700 16005KT 3SM -RA BR OVC005 WS015/20030KT
     FM240000 12005KT 3SM RA BR OVC006 WS015/18032KT=




U.S. Dept. of Commerce
NOAA National Weather Service
1325 East West Highway
Silver Spring, MD 20910
E-mail: w-nws.webmaster@noaa.gov
Page last modified: May 16, 2007
NATIONAL WEATHER SERVICE: for Safety, for Work, for Fun - FOR LIFE